Home   Weather   Sikar   Past weeks

Flag for India Past Weather in Sikar, Rajasthan, India — Yesterday and Last 2 Weeks

Now
59 °F

Passing clouds.


Feels Like: 60 °F
Forecast: 51 / 76 °F
Wind: 3 mph from East

Location: Jaipur / Sanganer

Current Time: Jan 22, 2017 at 5:04:32 am

Latest Report: Jan 22, 2017 at 4:00 am


Visibility: 2 mi

Pressure: 30.15 "Hg

Humidity: 55%

Dew Point: 43 °F

Location of SikarLocation

Past Weather in Sikar — Graph

°F

Sikar Temperature Yesterday

Maximum temperature yesterday: 72 °F (at 3:30 pm)
Minimum temperature yesterday: 52 °F (at 6:30 am)
Average temperature yesterday: 61 °F

High & Low Weather Summary for the Past Weeks

 TemperatureHumidityPressure
High73 °F (Jan 19, 2:30 pm)100% (Jan 8, 12:00 am)30.30 "Hg (Jan 8, 12:00 am)
Low39 °F (Jan 12, 5:30 am)15% (Jan 13, 5:00 pm)29.83 "Hg (Jan 7, 3:00 pm)
Average58 °F50%30.07 "Hg
* Reported Jan 7 3:30 am — Jan 22 3:30 am, Sikar, Weather by CustomWeather, © 2017

Note: Actual official high and low records may vary slightly from our data, if they occured in-between our weather recording intervals... More about our weather records

Advertising

Sikar Weather History for the Previous 24 Hours

Scroll right to see more
 ConditionsComfort  
Time TempWeatherWind HumidityBarometerVisibility
3:30 am
Sun, Jan 22
57 °FPassing clouds.5 mph63%30.15 "Hg2 mi
3:00 am57 °FPassing clouds.7 mph63%30.15 "Hg2 mi
2:30 am57 °FPassing clouds.6 mph67%30.15 "Hg2 mi
2:00 am57 °FPassing clouds.5 mph63%30.15 "Hg2 mi
1:30 am57 °FPassing clouds.8 mph63%30.18 "Hg2 mi
1:00 am59 °FPassing clouds.7 mph63%30.18 "Hg2 mi
12:30 am59 °FPassing clouds.No wind63%30.18 "Hg2 mi
12:00 am57 °FPassing clouds.No wind67%30.18 "Hg2 mi
11:30 pm
Sat, Jan 21
59 °FPassing clouds.No wind63%30.18 "Hg2 mi
11:00 pm59 °FPassing clouds.No wind63%30.18 "Hg2 mi
10:30 pm61 °FPassing clouds.No wind52%30.18 "Hg2 mi
10:00 pm63 °FPassing clouds.No wind49%30.18 "Hg2 mi
9:00 pm63 °FPassing clouds.No wind49%30.18 "Hg2 mi
8:00 pm63 °FPassing clouds.No wind52%30.15 "Hg2 mi
7:30 pm63 °FPassing clouds.No wind49%30.12 "Hg2 mi
7:00 pm64 °FPassing clouds.No wind49%30.12 "Hg2 mi
6:30 pm64 °FPassing clouds.No wind49%30.12 "Hg2 mi
6:00 pm66 °FScattered clouds.No wind43%30.12 "Hg2 mi
5:00 pm70 °FScattered clouds.No wind35%30.09 "Hg2 mi
4:30 pm70 °FScattered clouds.No wind35%30.09 "Hg2 mi
4:00 pm70 °FScattered clouds.No wind35%30.12 "Hg2 mi
3:30 pm72 °FScattered clouds.No wind31%30.12 "Hg2 mi
3:00 pm70 °FScattered clouds.No wind33%30.12 "Hg2 mi
2:30 pm70 °FScattered clouds.No wind33%30.12 "Hg2 mi
2:00 pm68 °FScattered clouds.No wind35%30.15 "Hg2 mi
1:30 pm68 °FScattered clouds.No wind35%30.15 "Hg2 mi
1:00 pm66 °FScattered clouds.No wind35%30.18 "Hg2 mi
12:30 pm66 °FScattered clouds.No wind40%30.18 "Hg2 mi
12:00 pm64 °FScattered clouds.No wind43%30.18 "Hg2 mi
11:30 am63 °FScattered clouds.No wind42%30.21 "Hg2 mi
11:00 am63 °FScattered clouds.No wind42%30.21 "Hg1 mi
10:30 am64 °FScattered clouds.No wind40%30.21 "Hg1 mi
10:00 am63 °FScattered clouds.No wind39%30.21 "Hg1 mi
9:30 am63 °FScattered clouds.No wind39%30.21 "Hg1 mi
9:00 am59 °FScattered clouds.No wind45%30.18 "Hg1 mi
8:30 am57 °FScattered clouds.No wind51%30.18 "Hg1 mi
8:00 am54 °FScattered clouds.No wind58%30.15 "Hg1 mi
7:30 am54 °FHaze.No wind58%30.15 "Hg1 mi
7:00 am52 °FPassing clouds.No wind62%30.12 "Hg2 mi
6:30 am52 °FPassing clouds.No wind58%30.12 "Hg2 mi
6:00 am54 °FPassing clouds.No wind54%30.12 "Hg2 mi
5:30 am55 °FPassing clouds.No wind55%30.12 "Hg2 mi
5:00 am54 °FPassing clouds.No wind54%30.12 "Hg2 mi
Weather by CustomWeather, © 2017

See weather overviewHow to use our weather pages